Location: Ariel
(45.9570°N, 122.5700°W)
Time: 23:48:43
(UTC-07:00)

Transit 4A - Pass Details

Date: 26 July 2019
Orbit: 864 x 981 km, 66.8° (Epoch: 25 August)

Event Time Altitude Azimuth Distance (km) Brightness Sun altitude
Rises 05:22:45 0° 300° (WNW) 3,689 10.8 -4.2°
Reaches altitude 10° 05:27:41 10° 333° (NNW) 2,739 10.4 -3.5°
Maximum altitude 05:29:39 11° 351° (N) 2,634 10.6 -3.2°
Drops below altitude 10° 05:31:37 10° 9° (N) 2,730 11.0 -3.0°
Sets 05:36:31 0° 42° (NE) 3,658 12.8 -2.2°
